Oxford, NC

10:59 PM EST on November 11, 2019 (GMT -0500)
Henderson-Oxford

Weather History for KHNZ - June, 2019

Change the Weather History Date:

Saturday, June 1, 2019

  Actual Average (WUND) Record (WUND)
Temperature  
Mean Temperature 69 °F -  
Max Temperature 81 °F - - (-1)
Min Temperature 57 °F - - (-1)
Cooling Degree Days 4    
Growing Degree Days 19 (Base 50)    
Moisture  
Dew Point 57 °F    
Average Humidity 72    
Maximum Humidity 98    
Minimum Humidity 39    
Precipitation  
Precipitation 0.01 in - - ()
Sea Level Pressure  
Sea Level Pressure 29.84 in    
Wind  
Wind Speed 4 mph (North)    
Max Wind Speed 10 mph    
Max Gust Speed -    
Visibility 10 miles    
Events      
Averages and records for this station are not official NWS values.
T = Trace of Precipitation, MM = Missing Value Source: NWS Daily Summary

Daily Weather History Graph

Daily Weather History Graph

Search for Another Location

Airport or City:

Astronomy

Jun. 01, 2019 Rise Set
Actual Time 5:57 AM EDT 8:26 PM EDT
Civil Twilight 5:27 AM EDT 8:56 PM EDT
Nautical Twilight 4:51 AM EDT 9:33 PM EDT
Astronomical Twilight 4:10 AM EDT 10:14 PM EDT
Moon 4:56 AM EDT (6/1) 6:41 PM EDT (6/1)
Length of Visible Light 15h 28m
Length of Day
14h 28m
Waning Crescent, 4% of the Moon is Illuminated
Jun 1
Waning Crescent
Jun 3
New
Jun 10
First Quarter
Jun 17
Full
Jun 25
Last Quarter

Hourly Weather History & Observations

Time (EDT) Temp. Heat Index Dew Point Humidity Pressure Visibility Wind Dir Wind Speed Gust Speed Precip Events Conditions
12:00 AM 61.3 °F - 59.9 °F 95% 29.86 in 10.0 mi NNW 3.5 mph - N/A   Scattered Clouds
12:20 AM 61.2 °F - 59.9 °F 96% 29.86 in 10.0 mi NW 4.6 mph - N/A   Scattered Clouds
12:40 AM 61.0 °F - 59.5 °F 95% 29.85 in 10.0 mi West 4.6 mph - N/A   Scattered Clouds
1:00 AM 60.3 °F - 59.0 °F 96% 29.84 in 10.0 mi West 3.5 mph - N/A   Clear
1:20 AM 60.1 °F - 59.0 °F 96% 29.83 in 10.0 mi WNW 3.5 mph - N/A   Clear
1:40 AM 59.7 °F - 58.6 °F 96% 29.83 in 10.0 mi WNW 4.6 mph - N/A   Clear
2:00 AM 59.5 °F - 58.3 °F 96% 29.82 in 10.0 mi Calm Calm - N/A   Clear
2:20 AM 59.2 °F - 58.1 °F 96% 29.81 in 10.0 mi NW 4.6 mph - N/A   Clear
2:40 AM 59.0 °F - 58.1 °F 97% 29.81 in 10.0 mi North 3.5 mph - N/A   Clear
3:00 AM 58.6 °F - 57.6 °F 96% 29.81 in 10.0 mi Calm Calm - N/A   Clear
3:20 AM 58.5 °F - 57.6 °F 97% 29.81 in 10.0 mi NW 3.5 mph - N/A   Scattered Clouds
3:40 AM 58.5 °F - 57.6 °F 97% 29.81 in 10.0 mi Calm Calm - N/A   Scattered Clouds
4:00 AM 58.3 °F - 57.4 °F 97% 29.81 in 10.0 mi Calm Calm - N/A   Mostly Cloudy
4:20 AM 58.1 °F - 57.2 °F 97% 29.81 in 7.0 mi North 3.5 mph - N/A   Scattered Clouds
4:40 AM 58.1 °F - 57.2 °F 97% 29.81 in 10.0 mi NNW 3.5 mph - N/A   Clear
5:00 AM 58.1 °F - 57.2 °F 97% 29.81 in 10.0 mi NNW 3.5 mph - N/A   Clear
5:20 AM 57.7 °F - 57.2 °F 98% 29.82 in 10.0 mi North 4.6 mph - N/A   Clear
5:40 AM 57.9 °F - 57.2 °F 97% 29.83 in 10.0 mi North 3.5 mph - N/A   Clear
6:00 AM 57.7 °F - 57.2 °F 98% 29.84 in 10.0 mi North 4.6 mph - N/A   Clear
6:20 AM 58.1 °F - 57.2 °F 97% 29.84 in 10.0 mi North 4.6 mph - N/A   Clear
6:40 AM 58.1 °F - 57.4 °F 97% 29.84 in 10.0 mi North 4.6 mph - N/A   Clear
7:20 AM 59.5 °F - 58.6 °F 97% 29.85 in 10.0 mi North 3.5 mph - 0.01 in   Clear
7:40 AM 61.0 °F - 59.4 °F 94% 29.86 in 10.0 mi North 3.5 mph - 0.01 in   Clear
8:00 AM 62.6 °F - 59.9 °F 91% 29.86 in 10.0 mi North 5.8 mph - N/A   Clear
8:20 AM 63.1 °F - 59.7 °F 89% 29.86 in 10.0 mi North 5.8 mph - N/A   Clear
8:40 AM 64.4 °F - 60.1 °F 86% 29.87 in 10.0 mi NNE 4.6 mph - N/A   Clear
9:00 AM 65.8 °F - 59.9 °F 81% 29.88 in 10.0 mi North 5.8 mph - N/A   Scattered Clouds
9:20 AM 66.6 °F - 60.4 °F 81% 29.88 in 10.0 mi North 4.6 mph - N/A   Scattered Clouds
9:40 AM 68.0 °F - 60.6 °F 77% 29.88 in 10.0 mi North 4.6 mph - N/A   Scattered Clouds
10:00 AM 70.0 °F - 59.0 °F 68% 29.88 in 10.0 mi NE 5.8 mph - N/A   Clear
10:20 AM 71.8 °F - 59.0 °F 64% 29.87 in 10.0 mi NE 5.8 mph - N/A   Clear
10:40 AM 72.9 °F - 58.8 °F 61% 29.88 in 10.0 mi NNE 3.5 mph - N/A   Clear
11:00 AM 74.1 °F - 58.6 °F 58% 29.88 in 10.0 mi NE 3.5 mph - N/A   Clear
11:20 AM 74.8 °F - 58.1 °F 56% 29.87 in 10.0 mi NNE 6.9 mph - N/A   Clear
11:40 AM 76.8 °F - 58.6 °F 53% 29.87 in 10.0 mi NE 10.4 mph - N/A   Clear
12:00 PM 76.6 °F - 57.4 °F 51% 29.87 in 10.0 mi East 9.2 mph - N/A   Clear
12:20 PM 77.5 °F - 56.8 °F 49% 29.87 in 10.0 mi NNE 9.2 mph - N/A   Clear
12:40 PM 77.9 °F - 54.3 °F 44% 29.87 in 10.0 mi NE 10.4 mph - N/A   Clear
1:00 PM 79.5 °F - 55.9 °F 44% 29.86 in 10.0 mi NNE 6.9 mph - N/A   Clear
1:20 PM 79.2 °F - 55.0 °F 43% 29.86 in 10.0 mi NNE 8.1 mph - N/A   Clear
1:40 PM 80.1 °F 80.2 °F 55.4 °F 43% 29.85 in 10.0 mi East 5.8 mph - N/A   Scattered Clouds
2:00 PM 79.5 °F - 53.2 °F 40% 29.85 in 10.0 mi ENE 8.1 mph - N/A   Clear
2:20 PM 80.2 °F 80.1 °F 54.1 °F 40% 29.84 in 10.0 mi ENE 4.6 mph - N/A   Clear
2:40 PM 80.6 °F 80.4 °F 54.7 °F 41% 29.84 in 10.0 mi NNW 4.6 mph - N/A   Clear
3:00 PM 80.1 °F 80.1 °F 54.5 °F 41% 29.84 in 10.0 mi Calm Calm - N/A   Clear
3:20 PM 80.1 °F 80.1 °F 54.9 °F 42% 29.84 in 10.0 mi NE 5.8 mph - N/A   Scattered Clouds
3:40 PM 81.1 °F 80.9 °F 55.6 °F 41% 29.83 in 10.0 mi ENE 5.8 mph - N/A   Scattered Clouds
4:00 PM 79.3 °F - 53.1 °F 40% 29.82 in 10.0 mi Calm Calm - N/A   Clear
4:20 PM 81.3 °F 80.8 °F 54.3 °F 39% 29.82 in 10.0 mi NW 5.8 mph - N/A   Clear
4:40 PM 79.9 °F - 54.1 °F 41% 29.82 in 10.0 mi WNW 4.6 mph - N/A   Scattered Clouds
5:00 PM 80.1 °F 80.1 °F 54.7 °F 41% 29.82 in 10.0 mi NW 3.5 mph - N/A   Scattered Clouds
5:20 PM 79.2 °F - 54.1 °F 42% 29.82 in 5.0 mi NE 3.5 mph - N/A   Haze
5:40 PM 79.2 °F - 54.9 °F 43% 29.82 in 10.0 mi NW 4.6 mph - N/A   Scattered Clouds
6:20 PM 77.2 °F - 57.4 °F 50% 29.83 in 10.0 mi North 3.5 mph - N/A   Scattered Clouds
6:40 PM 77.7 °F - 57.2 °F 49% 29.83 in 10.0 mi North 3.5 mph - N/A   Clear
7:00 PM 76.5 °F - 58.1 °F 53% 29.83 in 10.0 mi NNE 3.5 mph - N/A   Clear
7:20 PM 73.8 °F - 57.9 °F 58% 29.84 in 10.0 mi North 3.5 mph - N/A   Clear
7:40 PM 73.6 °F - 55.0 °F 52% 29.84 in 10.0 mi Calm Calm - N/A   Clear
8:00 PM 71.8 °F - 55.8 °F 57% 29.84 in 10.0 mi Calm Calm - N/A   Clear
8:20 PM 70.2 °F - 55.9 °F 61% 29.84 in 10.0 mi Calm Calm - N/A   Clear
8:40 PM 66.6 °F - 59.4 °F 78% 29.85 in 10.0 mi Calm Calm - N/A   Clear
9:00 PM 65.3 °F - 57.9 °F 77% 29.85 in 10.0 mi Calm Calm - N/A   Clear
9:20 PM 65.3 °F - 58.1 °F 77% 29.85 in 10.0 mi Calm Calm - N/A   Clear
9:40 PM 65.7 °F - 58.8 °F 79% 29.85 in 10.0 mi Calm Calm - N/A   Clear
10:00 PM 65.5 °F - 58.1 °F 77% 29.86 in 10.0 mi Calm Calm - N/A   Clear
10:20 PM 64.6 °F - 58.1 °F 79% 29.86 in 10.0 mi Calm Calm - N/A   Clear
10:40 PM 64.0 °F - 57.9 °F 80% 29.86 in 10.0 mi Calm Calm - N/A   Clear
11:00 PM 62.1 °F - 58.3 °F 87% 29.86 in 10.0 mi Calm Calm - N/A   Clear
11:20 PM 63.1 °F - 57.6 °F 82% 29.86 in 10.0 mi Calm Calm - N/A   Clear
11:40 PM 62.2 °F - 57.4 °F 84% 29.87 in 10.0 mi Calm Calm - N/A   Clear